Location: Unspecified
(41.5516°N, 88.1098°W)
Time: 23:50:57
(UTC-05:00)

Cosmos 1674 - Visible Passes

Search period start: 23 July 2017 00:00
Search period end: 02 August 2017 00:00
Orbit: 498 x 523 km, 82.5° (Epoch: 23 July)

Date Brightness Start Highest point End Pass type
(mag) Time Alt. Az. Time Alt. Az. Time Alt. Az.
23 Jul 5.7 04:09:54 10° NNE 04:12:24 16° ENE 04:14:53 10° ESE visible
24 Jul 5.8 03:53:48 10° NE 03:55:41 13° ENE 03:57:34 10° E visible
25 Jul 6.1 03:38:14 10° ENE 03:38:57 10° ENE 03:39:41 10° E visible
26 Jul 2.7 04:54:28 10° NNW 04:58:18 71° W 05:02:08 10° S visible
27 Jul 2.7 04:37:49 10° N 04:41:41 88° ENE 04:45:33 10° S visible
28 Jul 3.0 04:21:12 10° N 04:25:04 68° E 04:28:54 10° SSE visible
29 Jul 3.5 04:04:38 10° N 04:08:26 52° E 04:12:11 10° SSE visible
30 Jul 4.0 03:48:06 10° N 03:51:46 40° ENE 03:55:25 10° SSE visible
31 Jul 4.4 03:31:37 10° NNE 03:35:06 31° ENE 03:38:34 10° SE visible
31 Jul 4.4 05:07:56 10° NW 05:10:25 17° W 05:12:54 10° SW visible
01 Aug 4.8 03:15:10 10° NNE 03:18:24 25° ENE 03:21:31 11° SE visible
01 Aug 4.1 04:50:56 10° NW 04:53:52 21° W 04:56:21 12° SW visible
